Location: Monrovia
(34.7865°N, 86.7139°W)
Time: 21:55:09
(UTC+00:00)

OAO 1 - Pass Details

Date: 14 July 2020
Orbit: 774 x 783 km, 35.0° (Epoch: 08 August)

Event Time Altitude Azimuth Distance (km) Brightness Sun altitude
Exits shadow 09:03:08 27° 256° (WSW) 1,464 5.5 -17.8°
Maximum altitude 09:06:13 83° 171° (S) 789 4.5 -17.3°
Drops below altitude 10° 09:11:45 10° 83° (E) 2,330 7.8 -16.5°
Sets 09:14:14 0° 83° (E) 3,259 8.7 -16.1°
